Time,TemperatureF,DewpointF,PressureIn,WindDirection,WindDirectionDegrees,WindSpeedMPH,WindSpeedGustMPH,Humidity,HourlyPrecipIn,Conditions,Clouds,dailyrainin,SolarRadiationWatts/m^2,SoftwareType,DateUTC
2013-02-07 00:00:00,27.9,21.3,30.31,NNE,16,0.0,2.0,76,0.00,,,0.00,0.00,VWS V14.01,2013-02-07 05:00:00,
2013-02-07 00:02:00,28.0,21.4,30.31,NNE,15,0.0,0.0,76,0.00,,,0.00,0.00,VWS V14.01,2013-02-07 05:02:00,
2013-02-07 00:07:00,28.0,21.4,30.31,NNE,33,0.0,1.0,76,0.00,,,0.00,0.00,VWS V14.01,2013-02-07 05:07:00,
2013-02-07 00:12:00,27.9,21.3,30.32,NNE,33,0.0,0.0,76,0.00,,,0.00,0.00,VWS V14.01,2013-02-07 05:12:00,
2013-02-07 00:17:00,27.8,20.9,30.33,NNE,33,0.0,0.0,75,0.00,,,0.00,0.00,VWS V14.01,2013-02-07 05:17:00,
2013-02-07 00:22:00,27.7,20.8,30.32,NNE,33,0.0,0.0,75,0.00,,,0.00,0.00,VWS V14.01,2013-02-07 05:22:00,
2013-02-07 00:27:00,27.6,20.7,30.33,NNE,33,0.0,0.0,75,0.00,,,0.00,0.00,VWS V14.01,2013-02-07 05:27:00,
2013-02-07 00:32:00,27.4,20.5,30.33,NNE,33,0.0,0.0,75,0.00,,,0.00,0.00,VWS V14.01,2013-02-07 05:32:00,
2013-02-07 00:37:00,27.1,20.5,30.33,NNE,33,0.0,0.0,76,0.00,,,0.00,0.00,VWS V14.01,2013-02-07 05:37:00,
2013-02-07 00:43:00,26.8,20.6,30.34,NNE,33,0.0,0.0,77,0.00,,,0.00,0.00,VWS V14.01,2013-02-07 05:43:00,
2013-02-07 00:48:00,26.6,20.4,30.34,NNE,33,0.0,0.0,77,0.00,,,0.00,0.00,VWS V14.01,2013-02-07 05:48:00,
2013-02-07 00:53:00,26.4,20.2,30.35,NNE,33,0.0,0.0,77,0.00,,,0.00,0.00,VWS V14.01,2013-02-07 05:53:00,
2013-02-07 00:58:00,26.2,20.3,30.34,NNE,33,0.0,0.0,78,0.00,,,0.00,0.00,VWS V14.01,2013-02-07 05:58:00,
2013-02-07 01:03:00,26.0,20.1,30.34,NNE,33,0.0,0.0,78,0.00,,,0.00,0.00,VWS V14.01,2013-02-07 06:03:00,
2013-02-07 01:08:00,25.9,20.3,30.34,NNE,33,0.0,0.0,79,0.00,,,0.00,0.00,VWS V14.01,2013-02-07 06:08:00,
2013-02-07 01:13:00,25.8,20.2,30.34,NNE,33,0.0,0.0,79,0.00,,,0.00,0.00,VWS V14.01,2013-02-07 06:13:00,
2013-02-07 01:19:00,26.0,20.4,30.33,NNE,33,0.0,0.0,79,0.00,,,0.00,0.00,VWS V14.01,2013-02-07 06:19:00,
2013-02-07 01:24:00,26.0,20.4,30.33,NNE,33,0.0,0.0,79,0.00,,,0.00,0.00,VWS V14.01,2013-02-07 06:24:00,
2013-02-07 01:29:00,25.9,20.3,30.34,NNE,33,1.0,1.0,79,0.00,,,0.00,0.00,VWS V14.01,2013-02-07 06:29:00,
2013-02-07 01:34:00,25.8,20.2,30.35,NNE,33,0.0,1.0,79,0.00,,,0.00,0.00,VWS V14.01,2013-02-07 06:34:00,
2013-02-07 01:39:00,25.7,20.4,30.35,NNE,33,0.0,0.0,80,0.00,,,0.00,0.00,VWS V14.01,2013-02-07 06:39:00,
2013-02-07 01:44:00,25.6,20.3,30.35,NNE,33,0.0,0.0,80,0.00,,,0.00,0.00,VWS V14.01,2013-02-07 06:44:00,
2013-02-07 01:49:00,25.5,20.2,30.35,NNE,33,0.0,0.0,80,0.00,,,0.00,0.00,VWS V14.01,2013-02-07 06:49:00,
2013-02-07 01:54:00,25.3,20.0,30.37,SSE,161,1.0,4.0,80,0.00,,,0.00,0.00,VWS V14.01,2013-02-07 06:54:00,
2013-02-07 01:59:00,25.1,20.1,30.37,SSW,210,0.0,4.0,81,0.00,,,0.00,0.00,VWS V14.01,2013-02-07 06:59:00,
2013-02-07 02:05:00,25.1,20.1,30.37,SSW,210,0.0,0.0,81,0.00,,,0.00,0.00,VWS V14.01,2013-02-07 07:05:00,
2013-02-07 02:10:00,25.0,20.3,30.37,SSW,210,0.0,0.0,82,0.00,,,0.00,0.00,VWS V14.01,2013-02-07 07:10:00,
2013-02-07 02:15:00,24.9,20.2,30.38,SSW,210,0.0,0.0,82,0.00,,,0.00,0.00,VWS V14.01,2013-02-07 07:15:00,
2013-02-07 02:20:00,24.9,20.2,30.37,SSW,210,0.0,0.0,82,0.00,,,0.00,0.00,VWS V14.01,2013-02-07 07:20:00,
2013-02-07 02:25:00,24.8,20.1,30.37,SSW,210,0.0,0.0,82,0.00,,,0.00,0.00,VWS V14.01,2013-02-07 07:25:00,
2013-02-07 02:30:00,24.8,20.4,30.37,SSW,210,0.0,0.0,83,0.00,,,0.00,0.00,VWS V14.01,2013-02-07 07:30:00,
2013-02-07 02:35:00,24.7,20.0,30.37,SSW,210,0.0,0.0,82,0.00,,,0.00,0.00,VWS V14.01,2013-02-07 07:35:00,
2013-02-07 02:40:00,24.7,20.3,30.36,SSW,210,0.0,0.0,83,0.00,,,0.00,0.00,VWS V14.01,2013-02-07 07:40:00,
2013-02-07 02:45:00,24.6,20.2,30.37,SSW,210,0.0,0.0,83,0.00,,,0.00,0.00,VWS V14.01,2013-02-07 07:45:00,
2013-02-07 02:50:00,24.6,20.2,30.36,SSW,210,0.0,0.0,83,0.00,,,0.00,0.00,VWS V14.01,2013-02-07 07:50:00,
2013-02-07 02:55:00,24.6,20.2,30.36,SSW,210,0.0,0.0,83,0.00,,,0.00,0.00,VWS V14.01,2013-02-07 07:55:00,
2013-02-07 03:00:00,24.5,20.1,30.36,SSW,210,0.0,0.0,83,0.00,,,0.00,0.00,VWS V14.01,2013-02-07 08:00:00,
2013-02-07 03:05:00,24.5,20.1,30.36,SSW,210,0.0,0.0,83,0.00,,,0.00,0.00,VWS V14.01,2013-02-07 08:05:00,
2013-02-07 03:11:00,24.6,20.2,30.36,SSW,210,0.0,0.0,83,0.00,,,0.00,0.00,VWS V14.01,2013-02-07 08:11:00,
2013-02-07 03:16:00,24.6,20.5,30.35,SSW,210,0.0,0.0,84,0.00,,,0.00,0.00,VWS V14.01,2013-02-07 08:16:00,
2013-02-07 03:21:00,24.7,20.3,30.35,SSW,210,0.0,0.0,83,0.00,,,0.00,0.00,VWS V14.01,2013-02-07 08:21:00,
2013-02-07 03:26:00,24.7,20.6,30.35,SSW,210,0.0,0.0,84,0.00,,,0.00,0.00,VWS V14.01,2013-02-07 08:26:00,
2013-02-07 03:31:00,24.7,20.3,30.35,SSW,210,0.0,0.0,83,0.00,,,0.00,0.00,VWS V14.01,2013-02-07 08:31:00,
2013-02-07 03:36:00,24.8,20.7,30.34,SSW,210,0.0,0.0,84,0.00,,,0.00,0.00,VWS V14.01,2013-02-07 08:36:00,
2013-02-07 03:41:00,24.8,20.7,30.34,SSW,210,0.0,0.0,84,0.00,,,0.00,0.00,VWS V14.01,2013-02-07 08:41:00,
2013-02-07 03:47:00,24.8,20.7,30.34,SSW,210,0.0,0.0,84,0.00,,,0.00,0.00,VWS V14.01,2013-02-07 08:47:00,
2013-02-07 03:52:00,24.8,20.4,30.34,SSW,210,0.0,0.0,83,0.00,,,0.00,0.00,VWS V14.01,2013-02-07 08:52:00,
2013-02-07 03:57:00,24.8,20.4,30.34,SSW,210,0.0,0.0,83,0.00,,,0.00,0.00,VWS V14.01,2013-02-07 08:57:00,
2013-02-07 04:02:00,24.7,20.6,30.34,SSW,210,0.0,0.0,84,0.00,,,0.00,0.00,VWS V14.01,2013-02-07 09:02:00,
2013-02-07 04:07:00,24.7,20.6,30.34,SSW,210,0.0,0.0,84,0.00,,,0.00,0.00,VWS V14.01,2013-02-07 09:07:00,
2013-02-07 04:13:00,24.7,20.6,30.34,SSW,210,0.0,0.0,84,0.00,,,0.00,0.00,VWS V14.01,2013-02-07 09:13:00,
2013-02-07 04:18:00,24.6,20.5,30.34,SSW,210,0.0,0.0,84,0.00,,,0.00,0.00,VWS V14.01,2013-02-07 09:18:00,
2013-02-07 04:23:00,24.5,20.4,30.34,SSW,210,0.0,0.0,84,0.00,,,0.00,0.00,VWS V14.01,2013-02-07 09:23:00,
2013-02-07 04:28:00,24.4,20.3,30.34,SSW,210,0.0,0.0,84,0.00,,,0.00,0.00,VWS V14.01,2013-02-07 09:28:00,
2013-02-07 04:33:00,24.4,20.3,30.34,SSW,210,0.0,0.0,84,0.00,,,0.00,0.00,VWS V14.01,2013-02-07 09:33:00,
2013-02-07 04:38:00,24.3,20.2,30.34,SSW,210,0.0,0.0,84,0.00,,,0.00,0.00,VWS V14.01,2013-02-07 09:38:00,
2013-02-07 04:43:00,24.3,20.2,30.35,SSW,210,0.0,0.0,84,0.00,,,0.00,0.00,VWS V14.01,2013-02-07 09:43:00,
2013-02-07 04:48:00,24.3,20.5,30.36,SSW,210,0.0,0.0,85,0.00,,,0.00,0.00,VWS V14.01,2013-02-07 09:48:00,
2013-02-07 04:53:00,24.3,20.5,30.36,SSW,210,0.0,0.0,85,0.00,,,0.00,0.00,VWS V14.01,2013-02-07 09:53:00,
2013-02-07 04:58:00,24.3,20.5,30.36,SSW,210,0.0,0.0,85,0.00,,,0.00,0.00,VWS V14.01,2013-02-07 09:58:00,
2013-02-07 05:04:00,24.3,20.5,30.37,SSW,210,0.0,0.0,85,0.00,,,0.00,0.00,VWS V14.01,2013-02-07 10:04:00,
2013-02-07 05:09:00,24.4,20.8,30.37,SSW,210,0.0,0.0,86,0.00,,,0.00,0.00,VWS V14.01,2013-02-07 10:09:00,
2013-02-07 05:14:00,24.4,20.8,30.38,SSW,210,0.0,0.0,86,0.00,,,0.00,0.00,VWS V14.01,2013-02-07 10:14:00,
2013-02-07 05:19:00,24.4,20.8,30.38,SSW,210,0.0,0.0,86,0.00,,,0.00,0.00,VWS V14.01,2013-02-07 10:19:00,
2013-02-07 05:24:00,24.5,20.9,30.38,SSW,210,0.0,0.0,86,0.00,,,0.00,0.00,VWS V14.01,2013-02-07 10:24:00,
2013-02-07 05:29:00,24.5,20.9,30.37,SSW,210,0.0,1.0,86,0.00,,,0.00,0.00,VWS V14.01,2013-02-07 10:29:00,
2013-02-07 05:34:00,24.7,21.1,30.37,SSW,210,0.0,0.0,86,0.00,,,0.00,0.00,VWS V14.01,2013-02-07 10:34:00,
2013-02-07 05:40:00,24.8,21.2,30.37,SSW,210,0.0,0.0,86,0.00,,,0.00,0.00,VWS V14.01,2013-02-07 10:40:00,
2013-02-07 05:45:00,24.9,21.3,30.37,SSW,210,0.0,0.0,86,0.00,,,0.00,0.00,VWS V14.01,2013-02-07 10:45:00,
2013-02-07 05:50:00,25.0,21.4,30.37,SSW,210,0.0,0.0,86,0.00,,,0.00,0.00,VWS V14.01,2013-02-07 10:50:00,
2013-02-07 05:55:00,25.0,21.4,30.37,SSW,210,0.0,0.0,86,0.00,,,0.00,0.00,VWS V14.01,2013-02-07 10:55:00,
2013-02-07 06:00:00,25.0,21.4,30.37,SSW,210,0.0,0.0,86,0.00,,,0.00,0.00,VWS V14.01,2013-02-07 11:00:00,
2013-02-07 06:05:00,25.0,21.4,30.38,SSW,210,0.0,0.0,86,0.00,,,0.00,0.00,VWS V14.01,2013-02-07 11:05:00,
2013-02-07 06:10:00,25.1,21.5,30.38,SSW,210,0.0,0.0,86,0.00,,,0.00,0.00,VWS V14.01,2013-02-07 11:10:00,
2013-02-07 06:15:00,25.1,21.5,30.38,SSW,210,0.0,0.0,86,0.00,,,0.00,0.00,VWS V14.01,2013-02-07 11:15:00,
2013-02-07 06:20:00,25.1,21.5,30.38,SSW,210,0.0,0.0,86,0.00,,,0.00,0.00,VWS V14.01,2013-02-07 11:20:00,
2013-02-07 06:25:00,25.1,21.5,30.38,SSW,210,0.0,0.0,86,0.00,,,0.00,0.00,VWS V14.01,2013-02-07 11:25:00,
2013-02-07 06:30:00,25.2,21.6,30.38,SSW,210,0.0,0.0,86,0.00,,,0.00,0.00,VWS V14.01,2013-02-07 11:30:00,
2013-02-07 06:35:00,25.2,21.6,30.38,SSW,210,0.0,0.0,86,0.00,,,0.00,0.00,VWS V14.01,2013-02-07 11:35:00,
2013-02-07 06:40:00,25.3,21.7,30.38,SSW,210,0.0,0.0,86,0.00,,,0.00,0.00,VWS V14.01,2013-02-07 11:40:00,
2013-02-07 06:45:00,25.4,21.8,30.39,SSW,210,0.0,0.0,86,0.00,,,0.00,0.00,VWS V14.01,2013-02-07 11:45:00,
2013-02-07 06:50:00,25.6,22.0,30.39,SSW,210,0.0,0.0,86,0.00,,,0.00,0.00,VWS V14.01,2013-02-07 11:50:00,
2013-02-07 06:55:00,25.7,22.1,30.39,SSW,210,0.0,0.0,86,0.00,,,0.00,0.00,VWS V14.01,2013-02-07 11:55:00,
2013-02-07 07:00:00,25.8,22.2,30.39,SSW,210,0.0,0.0,86,0.00,,,0.00,0.00,VWS V14.01,2013-02-07 12:00:00,
2013-02-07 07:06:00,25.9,22.3,30.38,SSW,210,0.0,0.0,86,0.00,,,0.00,0.00,VWS V14.01,2013-02-07 12:06:00,
2013-02-07 07:11:00,26.0,22.4,30.39,SSW,210,0.0,0.0,86,0.00,,,0.00,0.00,VWS V14.01,2013-02-07 12:11:00,
2013-02-07 07:16:00,26.1,22.5,30.39,SSW,210,0.0,0.0,86,0.00,,,0.00,0.00,VWS V14.01,2013-02-07 12:16:00,
2013-02-07 07:21:00,26.1,22.5,30.40,SSW,210,0.0,0.0,86,0.00,,,0.00,5.00,VWS V14.01,2013-02-07 12:21:00,
2013-02-07 07:26:00,26.2,22.6,30.40,SSW,210,0.0,0.0,86,0.00,,,0.00,7.00,VWS V14.01,2013-02-07 12:26:00,
2013-02-07 07:32:00,26.2,22.6,30.40,SSW,210,0.0,0.0,86,0.00,,,0.00,12.00,VWS V14.01,2013-02-07 12:32:00,
2013-02-07 07:37:00,26.3,22.7,30.40,SSW,210,0.0,0.0,86,0.00,,,0.00,16.00,VWS V14.01,2013-02-07 12:37:00,
2013-02-07 07:42:00,26.3,22.7,30.40,SSW,210,0.0,0.0,86,0.00,,,0.00,23.00,VWS V14.01,2013-02-07 12:42:00,
2013-02-07 07:47:00,26.4,22.8,30.40,SSW,210,0.0,0.0,86,0.00,,,0.00,28.00,VWS V14.01,2013-02-07 12:47:00,
2013-02-07 07:52:00,26.5,22.9,30.40,SSW,210,0.0,0.0,86,0.00,,,0.00,30.00,VWS V14.01,2013-02-07 12:52:00,
2013-02-07 07:57:00,26.6,23.0,30.40,SSW,210,0.0,0.0,86,0.00,,,0.00,35.00,VWS V14.01,2013-02-07 12:57:00,
2013-02-07 08:02:00,26.8,23.2,30.40,SSW,210,0.0,0.0,86,0.00,,,0.00,35.00,VWS V14.01,2013-02-07 13:02:00,
2013-02-07 08:08:00,27.0,23.4,30.41,SSW,210,0.0,0.0,86,0.00,,,0.00,42.00,VWS V14.01,2013-02-07 13:08:00,
2013-02-07 08:13:00,27.2,23.6,30.41,SSW,210,0.0,0.0,86,0.00,,,0.00,53.00,VWS V14.01,2013-02-07 13:13:00,
2013-02-07 08:18:00,27.3,23.7,30.40,SSW,210,0.0,0.0,86,0.00,,,0.00,53.00,VWS V14.01,2013-02-07 13:18:00,
2013-02-07 08:23:00,27.5,23.9,30.40,SSW,210,0.0,0.0,86,0.00,,,0.00,63.00,VWS V14.01,2013-02-07 13:23:00,
2013-02-07 08:28:00,27.7,24.1,30.41,SSW,210,0.0,0.0,86,0.00,,,0.00,62.00,VWS V14.01,2013-02-07 13:28:00,
2013-02-07 08:33:00,27.8,24.2,30.41,SSW,210,0.0,0.0,86,0.00,,,0.00,65.00,VWS V14.01,2013-02-07 13:33:00,
2013-02-07 08:38:00,28.0,24.4,30.41,SSW,210,0.0,0.0,86,0.00,,,0.00,77.00,VWS V14.01,2013-02-07 13:38:00,
2013-02-07 08:43:00,28.3,24.7,30.41,SSW,210,0.0,0.0,86,0.00,,,0.00,81.00,VWS V14.01,2013-02-07 13:43:00,
2013-02-07 08:49:00,28.6,25.0,30.41,SSW,210,0.0,0.0,86,0.00,,,0.00,95.00,VWS V14.01,2013-02-07 13:49:00,
2013-02-07 08:54:00,28.9,25.2,30.41,SSW,210,0.0,0.0,86,0.00,,,0.00,104.00,VWS V14.01,2013-02-07 13:54:00,
2013-02-07 08:59:00,29.1,25.4,30.41,SSW,210,0.0,0.0,86,0.00,,,0.00,109.00,VWS V14.01,2013-02-07 13:59:00,
2013-02-07 09:04:00,29.5,25.6,30.41,SSW,210,0.0,1.0,85,0.00,,,0.00,111.00,VWS V14.01,2013-02-07 14:04:00,
2013-02-07 09:09:00,29.9,25.4,30.40,SSW,210,0.0,3.0,83,0.00,,,0.00,109.00,VWS V14.01,2013-02-07 14:09:00,
2013-02-07 09:14:00,30.4,25.3,30.40,South,175,0.0,2.0,81,0.00,,,0.00,109.00,VWS V14.01,2013-02-07 14:14:00,
2013-02-07 09:19:00,30.9,24.9,30.40,SE,146,0.0,3.0,78,0.00,,,0.00,109.00,VWS V14.01,2013-02-07 14:19:00,
2013-02-07 09:24:00,31.4,24.1,30.40,SE,137,3.0,5.0,74,0.00,,,0.00,105.00,VWS V14.01,2013-02-07 14:24:00,
2013-02-07 09:30:00,31.8,24.1,30.40,SSE,162,3.0,4.0,73,0.00,,,0.00,111.00,VWS V14.01,2013-02-07 14:30:00,
2013-02-07 09:35:00,32.1,23.8,30.40,SSE,148,0.0,6.0,71,0.00,,,0.00,118.00,VWS V14.01,2013-02-07 14:35:00,
2013-02-07 09:40:00,32.4,23.7,30.40,South,172,0.0,3.0,70,0.00,,,0.00,121.00,VWS V14.01,2013-02-07 14:40:00,
2013-02-07 09:45:00,32.6,23.6,30.40,South,177,1.0,6.0,69,0.00,,,0.00,125.00,VWS V14.01,2013-02-07 14:45:00,
2013-02-07 09:50:00,32.8,23.8,30.40,SSE,153,5.0,5.0,69,0.00,,,0.00,134.00,VWS V14.01,2013-02-07 14:50:00,
2013-02-07 09:55:00,33.0,23.6,30.40,South,178,1.0,6.0,68,0.00,,,0.00,146.00,VWS V14.01,2013-02-07 14:55:00,
2013-02-07 10:00:00,33.1,23.4,30.40,South,181,3.0,6.0,67,0.00,,,0.00,146.00,VWS V14.01,2013-02-07 15:00:00,
2013-02-07 10:05:00,33.2,23.8,30.40,SSE,155,0.0,6.0,68,0.00,,,0.00,144.00,VWS V14.01,2013-02-07 15:05:00,
2013-02-07 10:10:00,33.2,23.1,30.40,SSE,152,0.0,5.0,66,0.00,,,0.00,155.00,VWS V14.01,2013-02-07 15:10:00,
2013-02-07 10:15:00,33.4,23.6,30.40,SSE,148,1.0,1.0,67,0.00,,,0.00,135.00,VWS V14.01,2013-02-07 15:15:00,
2013-02-07 10:20:00,33.5,23.7,30.40,ESE,120,2.0,4.0,67,0.00,,,0.00,158.00,VWS V14.01,2013-02-07 15:20:00,
2013-02-07 10:25:00,33.5,23.4,30.40,SE,141,0.0,3.0,66,0.00,,,0.00,144.00,VWS V14.01,2013-02-07 15:25:00,
2013-02-07 10:30:00,33.6,23.5,30.40,SSE,153,0.0,1.0,66,0.00,,,0.00,144.00,VWS V14.01,2013-02-07 15:30:00,
2013-02-07 10:36:00,33.7,23.6,30.40,SSE,155,0.0,2.0,66,0.00,,,0.00,139.00,VWS V14.01,2013-02-07 15:36:00,
2013-02-07 10:41:00,33.8,23.7,30.40,South,184,0.0,2.0,66,0.00,,,0.00,153.00,VWS V14.01,2013-02-07 15:41:00,
2013-02-07 10:46:00,33.9,23.8,30.39,SSE,157,2.0,3.0,66,0.00,,,0.00,155.00,VWS V14.01,2013-02-07 15:46:00,
2013-02-07 10:51:00,34.1,24.3,30.39,South,178,3.0,4.0,67,0.00,,,0.00,156.00,VWS V14.01,2013-02-07 15:51:00,
2013-02-07 10:56:00,34.1,23.6,30.39,South,180,1.0,6.0,65,0.00,,,0.00,155.00,VWS V14.01,2013-02-07 15:56:00,
2013-02-07 11:02:00,34.1,24.0,30.39,South,173,2.0,3.0,66,0.00,,,0.00,156.00,VWS V14.01,2013-02-07 16:02:00,
2013-02-07 11:07:00,34.2,23.7,30.39,South,175,1.0,5.0,65,0.00,,,0.00,158.00,VWS V14.01,2013-02-07 16:07:00,
2013-02-07 11:12:00,34.3,23.8,30.39,SSE,150,0.0,4.0,65,0.00,,,0.00,162.00,VWS V14.01,2013-02-07 16:12:00,
2013-02-07 11:17:00,34.4,23.9,30.39,SSE,161,1.0,4.0,65,0.00,,,0.00,149.00,VWS V14.01,2013-02-07 16:17:00,
2013-02-07 11:22:00,34.4,23.5,30.39,SSE,168,4.0,7.0,64,0.00,,,0.00,146.00,VWS V14.01,2013-02-07 16:22:00,
2013-02-07 11:27:00,34.4,23.9,30.39,SSE,163,0.0,3.0,65,0.00,,,0.00,153.00,VWS V14.01,2013-02-07 16:27:00,
2013-02-07 11:32:00,34.4,23.5,30.38,SSE,153,4.0,5.0,64,0.00,,,0.00,158.00,VWS V14.01,2013-02-07 16:32:00,
2013-02-07 11:37:00,34.4,23.9,30.38,South,182,0.0,6.0,65,0.00,,,0.00,163.00,VWS V14.01,2013-02-07 16:37:00,
2013-02-07 11:42:00,34.4,24.2,30.37,SSE,166,2.0,5.0,66,0.00,,,0.00,172.00,VWS V14.01,2013-02-07 16:42:00,
2013-02-07 11:47:00,34.6,24.1,30.37,SSE,155,6.0,7.0,65,0.00,,,0.00,172.00,VWS V14.01,2013-02-07 16:47:00,
2013-02-07 11:52:00,34.5,24.0,30.37,South,174,4.0,7.0,65,0.00,,,0.00,176.00,VWS V14.01,2013-02-07 16:52:00,
2013-02-07 11:58:00,34.6,24.1,30.36,SE,145,3.0,6.0,65,0.00,,,0.00,167.00,VWS V14.01,2013-02-07 16:58:00,
2013-02-07 12:03:00,34.7,24.1,30.36,SSE,165,0.0,9.0,65,0.00,,,0.00,169.00,VWS V14.01,2013-02-07 17:03:00,
2013-02-07 12:08:00,34.8,24.2,30.36,South,184,5.0,6.0,65,0.00,,,0.00,172.00,VWS V14.01,2013-02-07 17:08:00,
2013-02-07 12:13:00,34.7,24.1,30.35,South,179,4.0,6.0,65,0.00,,,0.00,171.00,VWS V14.01,2013-02-07 17:13:00,
2013-02-07 12:18:00,34.7,24.5,30.35,SSE,156,0.0,6.0,66,0.00,,,0.00,165.00,VWS V14.01,2013-02-07 17:18:00,
2013-02-07 12:23:00,34.8,24.6,30.35,South,181,1.0,5.0,66,0.00,,,0.00,158.00,VWS V14.01,2013-02-07 17:23:00,
2013-02-07 12:28:00,34.9,25.1,30.35,SSE,153,4.0,5.0,67,0.00,,,0.00,162.00,VWS V14.01,2013-02-07 17:28:00,
2013-02-07 12:34:00,35.0,24.8,30.35,SSE,152,0.0,5.0,66,0.00,,,0.00,163.00,VWS V14.01,2013-02-07 17:34:00,
2013-02-07 12:39:00,35.2,25.4,30.34,SE,138,1.0,2.0,67,0.00,,,0.00,169.00,VWS V14.01,2013-02-07 17:39:00,
2013-02-07 12:44:00,35.2,25.0,30.34,SSE,155,0.0,6.0,66,0.00,,,0.00,174.00,VWS V14.01,2013-02-07 17:44:00,
2013-02-07 12:49:00,35.2,25.0,30.34,South,171,4.0,5.0,66,0.00,,,0.00,172.00,VWS V14.01,2013-02-07 17:49:00,
2013-02-07 12:54:00,35.2,25.4,30.34,South,178,0.0,4.0,67,0.00,,,0.00,171.00,VWS V14.01,2013-02-07 17:54:00,
2013-02-07 12:59:00,35.2,25.4,30.33,SSE,159,3.0,6.0,67,0.00,,,0.00,181.00,VWS V14.01,2013-02-07 17:59:00,
2013-02-07 13:04:00,35.2,25.4,30.33,SSE,168,2.0,6.0,67,0.00,,,0.00,183.00,VWS V14.01,2013-02-07 18:04:00,
2013-02-07 13:09:00,35.3,25.5,30.33,SSE,160,0.0,6.0,67,0.00,,,0.00,195.00,VWS V14.01,2013-02-07 18:09:00,
2013-02-07 13:14:00,35.4,25.5,30.33,SSE,159,5.0,6.0,67,0.00,,,0.00,206.00,VWS V14.01,2013-02-07 18:14:00,
2013-02-07 13:20:00,35.4,25.2,30.33,South,181,1.0,6.0,66,0.00,,,0.00,199.00,VWS V14.01,2013-02-07 18:20:00,
2013-02-07 13:25:00,35.6,25.7,30.33,South,180,1.0,5.0,67,0.00,,,0.00,202.00,VWS V14.01,2013-02-07 18:25:00,
2013-02-07 13:30:00,35.7,25.8,30.33,SSE,167,2.0,6.0,67,0.00,,,0.00,206.00,VWS V14.01,2013-02-07 18:30:00,
2013-02-07 13:35:00,35.9,25.7,30.32,SE,133,3.0,7.0,66,0.00,,,0.00,193.00,VWS V14.01,2013-02-07 18:35:00,
2013-02-07 13:40:00,35.9,25.3,30.32,SSE,167,5.0,8.0,65,0.00,,,0.00,204.00,VWS V14.01,2013-02-07 18:40:00,
2013-02-07 13:45:00,35.9,25.3,30.32,SSE,160,3.0,8.0,65,0.00,,,0.00,199.00,VWS V14.01,2013-02-07 18:45:00,
2013-02-07 13:50:00,36.1,25.9,30.32,SSE,153,4.0,8.0,66,0.00,,,0.00,204.00,VWS V14.01,2013-02-07 18:50:00,
2013-02-07 13:55:00,36.3,26.0,30.31,SSW,193,4.0,6.0,66,0.00,,,0.00,202.00,VWS V14.01,2013-02-07 18:55:00,
2013-02-07 14:00:00,36.3,25.3,30.31,SSE,164,1.0,9.0,64,0.00,,,0.00,197.00,VWS V14.01,2013-02-07 19:00:00,
2013-02-07 14:05:00,36.4,25.4,30.30,SSE,163,3.0,6.0,64,0.00,,,0.00,241.00,VWS V14.01,2013-02-07 19:05:00,
2013-02-07 14:10:00,36.5,25.9,30.30,SSE,153,4.0,7.0,65,0.00,,,0.00,269.00,VWS V14.01,2013-02-07 19:10:00,
2013-02-07 14:15:00,36.9,26.2,30.30,South,183,3.0,8.0,65,0.00,,,0.00,246.00,VWS V14.01,2013-02-07 19:15:00,
2013-02-07 14:20:00,37.0,25.6,30.29,SSE,163,2.0,10.0,63,0.00,,,0.00,281.00,VWS V14.01,2013-02-07 19:20:00,
2013-02-07 14:25:00,37.0,26.0,30.29,SSE,159,1.0,8.0,64,0.00,,,0.00,253.00,VWS V14.01,2013-02-07 19:25:00,
2013-02-07 14:30:00,37.3,26.3,30.28,South,175,0.0,10.0,64,0.00,,,0.00,239.00,VWS V14.01,2013-02-07 19:30:00,
2013-02-07 14:35:00,37.4,26.4,30.28,SSE,152,3.0,10.0,64,0.00,,,0.00,276.00,VWS V14.01,2013-02-07 19:35:00,
2013-02-07 14:40:00,37.6,26.2,30.28,South,169,4.0,5.0,63,0.00,,,0.00,237.00,VWS V14.01,2013-02-07 19:40:00,
2013-02-07 14:45:00,37.6,25.8,30.29,SSE,155,9.0,9.0,62,0.00,,,0.00,214.00,VWS V14.01,2013-02-07 19:45:00,
2013-02-07 14:50:00,37.6,26.2,30.29,SSE,149,2.0,9.0,63,0.00,,,0.00,232.00,VWS V14.01,2013-02-07 19:50:00,
2013-02-07 14:55:00,37.7,26.3,30.28,SSE,152,10.0,10.0,63,0.00,,,0.00,234.00,VWS V14.01,2013-02-07 19:55:00,
2013-02-07 15:00:00,37.8,26.0,30.28,SE,144,5.0,10.0,62,0.00,,,0.00,218.00,VWS V14.01,2013-02-07 20:00:00,
2013-02-07 15:05:00,37.9,26.1,30.28,South,172,0.0,12.0,62,0.00,,,0.00,244.00,VWS V14.01,2013-02-07 20:05:00,
2013-02-07 15:10:00,38.3,26.8,30.28,SSE,155,0.0,2.0,63,0.00,,,0.00,283.00,VWS V14.01,2013-02-07 20:10:00,
2013-02-07 15:15:00,38.6,26.7,30.27,SE,143,5.0,5.0,62,0.00,,,0.00,230.00,VWS V14.01,2013-02-07 20:15:00,
2013-02-07 15:20:00,38.6,26.3,30.27,SSE,150,2.0,2.0,61,0.00,,,0.00,264.00,VWS V14.01,2013-02-07 20:20:00,
2013-02-07 15:26:00,38.7,26.8,30.27,ESE,117,0.0,3.0,62,0.00,,,0.00,264.00,VWS V14.01,2013-02-07 20:26:00,
2013-02-07 15:31:00,38.9,27.0,30.27,SSE,163,2.0,6.0,62,0.00,,,0.00,229.00,VWS V14.01,2013-02-07 20:31:00,
2013-02-07 15:36:00,39.0,27.1,30.27,SSE,153,2.0,4.0,62,0.00,,,0.00,241.00,VWS V14.01,2013-02-07 20:36:00,
2013-02-07 15:41:00,39.0,27.1,30.27,SSE,148,0.0,3.0,62,0.00,,,0.00,185.00,VWS V14.01,2013-02-07 20:41:00,
2013-02-07 15:46:00,38.9,26.6,30.27,SSE,148,3.0,9.0,61,0.00,,,0.00,174.00,VWS V14.01,2013-02-07 20:46:00,
2013-02-07 15:51:00,38.6,26.7,30.27,SSE,158,0.0,2.0,62,0.00,,,0.00,178.00,VWS V14.01,2013-02-07 20:51:00,
2013-02-07 15:56:00,38.5,27.0,30.27,South,177,5.0,7.0,63,0.00,,,0.00,156.00,VWS V14.01,2013-02-07 20:56:00,
2013-02-07 16:02:00,38.4,26.5,30.26,SSE,154,0.0,4.0,62,0.00,,,0.00,149.00,VWS V14.01,2013-02-07 21:02:00,
2013-02-07 16:07:00,38.2,26.7,30.26,South,180,4.0,5.0,63,0.00,,,0.00,141.00,VWS V14.01,2013-02-07 21:07:00,
2013-02-07 16:12:00,38.1,26.6,30.26,South,175,1.0,10.0,63,0.00,,,0.00,127.00,VWS V14.01,2013-02-07 21:12:00,
2013-02-07 16:17:00,38.0,26.5,30.26,SSE,149,2.0,4.0,63,0.00,,,0.00,116.00,VWS V14.01,2013-02-07 21:17:00,
2013-02-07 16:22:00,37.9,26.5,30.25,SSE,150,0.0,7.0,63,0.00,,,0.00,102.00,VWS V14.01,2013-02-07 21:22:00,
2013-02-07 16:27:00,37.7,26.6,30.26,SE,142,3.0,4.0,64,0.00,,,0.00,90.00,VWS V14.01,2013-02-07 21:27:00,
2013-02-07 16:32:00,37.6,26.5,30.25,SSE,167,3.0,9.0,64,0.00,,,0.00,77.00,VWS V14.01,2013-02-07 21:32:00,
2013-02-07 16:37:00,37.5,26.5,30.26,SSE,159,4.0,4.0,64,0.00,,,0.00,74.00,VWS V14.01,2013-02-07 21:37:00,
2013-02-07 16:42:00,37.4,26.7,30.26,SSE,165,3.0,4.0,65,0.00,,,0.00,62.00,VWS V14.01,2013-02-07 21:42:00,
2013-02-07 16:48:00,37.2,26.5,30.27,ESE,113,4.0,7.0,65,0.00,,,0.00,53.00,VWS V14.01,2013-02-07 21:48:00,
2013-02-07 16:53:00,37.1,26.4,30.26,SSE,153,4.0,6.0,65,0.00,,,0.00,44.00,VWS V14.01,2013-02-07 21:53:00,
2013-02-07 16:58:00,36.9,26.6,30.27,SSE,157,4.0,7.0,66,0.00,,,0.00,37.00,VWS V14.01,2013-02-07 21:58:00,
2013-02-07 17:03:00,36.8,26.5,30.26,SSE,168,0.0,5.0,66,0.00,,,0.00,30.00,VWS V14.01,2013-02-07 22:03:00,
2013-02-07 17:08:00,36.7,26.4,30.26,South,170,1.0,8.0,66,0.00,,,0.00,21.00,VWS V14.01,2013-02-07 22:08:00,
2013-02-07 17:13:00,36.6,26.7,30.27,SSE,150,0.0,6.0,67,0.00,,,0.00,16.00,VWS V14.01,2013-02-07 22:13:00,
2013-02-07 17:18:00,36.5,26.6,30.27,SSE,154,0.0,3.0,67,0.00,,,0.00,11.00,VWS V14.01,2013-02-07 22:18:00,
2013-02-07 17:23:00,36.4,26.5,30.27,SSE,159,0.0,1.0,67,0.00,,,0.00,7.00,VWS V14.01,2013-02-07 22:23:00,
2013-02-07 17:28:00,36.4,26.9,30.27,SSE,159,0.0,1.0,68,0.00,,,0.00,0.00,VWS V14.01,2013-02-07 22:28:00,
2013-02-07 17:33:00,36.2,26.7,30.27,SSE,160,0.0,4.0,68,0.00,,,0.00,0.00,VWS V14.01,2013-02-07 22:33:00,
2013-02-07 17:39:00,36.2,26.7,30.27,South,173,1.0,4.0,68,0.00,,,0.00,0.00,VWS V14.01,2013-02-07 22:39:00,
2013-02-07 17:44:00,36.1,26.6,30.28,SSE,160,0.0,7.0,68,0.00,,,0.00,0.00,VWS V14.01,2013-02-07 22:44:00,
2013-02-07 17:49:00,36.1,26.6,30.27,SSE,168,1.0,2.0,68,0.00,,,0.00,0.00,VWS V14.01,2013-02-07 22:49:00,
2013-02-07 17:54:00,36.0,26.8,30.28,SSE,149,0.0,3.0,69,0.00,,,0.00,0.00,VWS V14.01,2013-02-07 22:54:00,
2013-02-07 17:59:00,36.0,26.8,30.28,SSE,150,4.0,5.0,69,0.00,,,0.00,0.00,VWS V14.01,2013-02-07 22:59:00,
2013-02-07 18:04:00,35.9,26.7,30.27,SSE,154,0.0,5.0,69,0.00,,,0.00,0.00,VWS V14.01,2013-02-07 23:04:00,
2013-02-07 18:09:00,35.9,26.7,30.27,SSE,149,0.0,2.0,69,0.00,,,0.00,0.00,VWS V14.01,2013-02-07 23:09:00,
2013-02-07 18:14:00,35.9,26.7,30.27,SSE,150,0.0,4.0,69,0.00,,,0.00,0.00,VWS V14.01,2013-02-07 23:14:00,
2013-02-07 18:19:00,35.8,26.6,30.28,SE,146,1.0,6.0,69,0.00,,,0.00,0.00,VWS V14.01,2013-02-07 23:19:00,
2013-02-07 18:25:00,35.8,26.6,30.28,SE,146,1.0,6.0,69,0.00,,,0.00,0.00,VWS V14.01,2013-02-07 23:25:00,
2013-02-07 18:30:00,35.7,26.5,30.27,SE,136,1.0,7.0,69,0.00,,,0.00,0.00,VWS V14.01,2013-02-07 23:30:00,
2013-02-07 18:35:00,35.5,26.4,30.28,SE,142,3.0,7.0,69,0.00,,,0.00,0.00,VWS V14.01,2013-02-07 23:35:00,
2013-02-07 18:40:00,35.4,26.3,30.27,ESE,117,3.0,7.0,69,0.00,,,0.00,0.00,VWS V14.01,2013-02-07 23:40:00,
2013-02-07 18:45:00,35.3,26.2,30.27,SE,146,3.0,8.0,69,0.00,,,0.00,0.00,VWS V14.01,2013-02-07 23:45:00,
2013-02-07 18:50:00,35.1,26.3,30.27,SE,129,4.0,7.0,70,0.00,,,0.00,0.00,VWS V14.01,2013-02-07 23:50:00,
2013-02-07 18:55:00,35.0,25.9,30.27,SSE,149,4.0,8.0,69,0.00,,,0.00,0.00,VWS V14.01,2013-02-07 23:55:00,
2013-02-07 19:00:00,35.0,26.2,30.27,SE,145,6.0,9.0,70,0.00,,,0.00,0.00,VWS V14.01,2013-02-08 00:00:00,
2013-02-07 19:05:00,34.9,26.1,30.27,SSE,148,0.0,8.0,70,0.00,,,0.00,0.00,VWS V14.01,2013-02-08 00:05:00,
2013-02-07 19:10:00,34.8,26.0,30.27,SSE,157,1.0,7.0,70,0.00,,,0.00,0.00,VWS V14.01,2013-02-08 00:10:00,
2013-02-07 19:15:00,34.8,26.0,30.27,SSE,148,2.0,10.0,70,0.00,,,0.00,0.00,VWS V14.01,2013-02-08 00:15:00,
2013-02-07 19:20:00,34.7,25.9,30.27,SSE,149,4.0,8.0,70,0.00,,,0.00,0.00,VWS V14.01,2013-02-08 00:20:00,
2013-02-07 19:25:00,34.6,25.8,30.27,SE,140,3.0,5.0,70,0.00,,,0.00,0.00,VWS V14.01,2013-02-08 00:25:00,
2013-02-07 19:30:00,34.5,25.7,30.27,SE,143,0.0,5.0,70,0.00,,,0.00,0.00,VWS V14.01,2013-02-08 00:30:00,
2013-02-07 19:35:00,34.4,25.6,30.27,SE,145,2.0,7.0,70,0.00,,,0.00,0.00,VWS V14.01,2013-02-08 00:35:00,
2013-02-07 19:40:00,34.4,25.6,30.27,SE,146,1.0,8.0,70,0.00,,,0.00,0.00,VWS V14.01,2013-02-08 00:40:00,
2013-02-07 19:45:00,34.4,25.6,30.27,SE,138,6.0,8.0,70,0.00,,,0.00,0.00,VWS V14.01,2013-02-08 00:45:00,
2013-02-07 19:50:00,34.4,25.6,30.27,SE,138,2.0,8.0,70,0.00,,,0.00,0.00,VWS V14.01,2013-02-08 00:50:00,
2013-02-07 19:55:00,34.5,25.7,30.26,SE,145,2.0,8.0,70,0.00,,,0.00,0.00,VWS V14.01,2013-02-08 00:55:00,
2013-02-07 20:00:00,34.4,25.6,30.26,SSE,156,3.0,10.0,70,0.00,,,0.00,0.00,VWS V14.01,2013-02-08 01:00:00,
2013-02-07 20:05:00,34.4,25.3,30.26,SE,145,4.0,10.0,69,0.00,,,0.00,0.00,VWS V14.01,2013-02-08 01:05:00,
2013-02-07 20:10:00,34.5,25.4,30.26,SSE,147,0.0,9.0,69,0.00,,,0.00,0.00,VWS V14.01,2013-02-08 01:10:00,
2013-02-07 20:15:00,34.4,25.3,30.26,SE,142,2.0,10.0,69,0.00,,,0.00,0.00,VWS V14.01,2013-02-08 01:15:00,
2013-02-07 20:20:00,34.4,25.3,30.26,SSE,160,2.0,6.0,69,0.00,,,0.00,0.00,VWS V14.01,2013-02-08 01:20:00,
2013-02-07 20:25:00,34.4,25.3,30.26,SSE,149,1.0,8.0,69,0.00,,,0.00,0.00,VWS V14.01,2013-02-08 01:25:00,
2013-02-07 20:30:00,34.4,25.3,30.26,ESE,119,4.0,8.0,69,0.00,,,0.00,0.00,VWS V14.01,2013-02-08 01:30:00,
2013-02-07 20:35:00,34.4,25.3,30.26,SE,140,3.0,8.0,69,0.00,,,0.00,0.00,VWS V14.01,2013-02-08 01:35:00,
2013-02-07 20:40:00,34.5,25.4,30.25,SE,146,2.0,7.0,69,0.00,,,0.00,0.00,VWS V14.01,2013-02-08 01:40:00,
2013-02-07 20:45:00,34.5,25.4,30.25,SSE,159,7.0,9.0,69,0.00,,,0.00,0.00,VWS V14.01,2013-02-08 01:45:00,
2013-02-07 20:50:00,34.5,25.4,30.25,SE,137,6.0,7.0,69,0.00,,,0.00,0.00,VWS V14.01,2013-02-08 01:50:00,
2013-02-07 20:55:00,34.5,25.4,30.25,SSE,155,1.0,8.0,69,0.00,,,0.00,0.00,VWS V14.01,2013-02-08 01:55:00,
2013-02-07 21:00:00,34.5,25.4,30.24,SSE,163,0.0,13.0,69,0.00,,,0.00,0.00,VWS V14.01,2013-02-08 02:00:00,
2013-02-07 21:05:00,34.5,25.7,30.24,SSE,165,2.0,2.0,70,0.00,,,0.00,0.00,VWS V14.01,2013-02-08 02:05:00,
2013-02-07 21:10:00,34.5,25.7,30.24,SSE,155,0.0,0.0,70,0.00,,,0.00,0.00,VWS V14.01,2013-02-08 02:10:00,
2013-02-07 21:15:00,34.5,25.7,30.24,South,173,7.0,7.0,70,0.00,,,0.00,0.00,VWS V14.01,2013-02-08 02:15:00,
2013-02-07 21:20:00,34.5,26.1,30.23,SE,143,2.0,6.0,71,0.00,,,0.00,0.00,VWS V14.01,2013-02-08 02:20:00,
2013-02-07 21:27:00,34.6,26.2,30.24,SSE,155,3.0,6.0,71,0.00,,,0.00,0.00,VWS V14.01,2013-02-08 02:27:00,
2013-02-07 21:32:00,34.6,26.5,30.23,SE,146,2.0,7.0,72,0.00,,,0.00,0.00,VWS V14.01,2013-02-08 02:32:00,
2013-02-07 21:37:00,34.5,26.4,30.24,SSE,160,2.0,7.0,72,0.00,,,0.00,0.00,VWS V14.01,2013-02-08 02:37:00,
2013-02-07 21:42:00,34.6,26.9,30.23,SSE,150,0.0,9.0,73,0.00,,,0.00,0.00,VWS V14.01,2013-02-08 02:42:00,
2013-02-07 21:47:00,34.6,27.2,30.23,SE,146,1.0,9.0,74,0.00,,,0.00,0.00,VWS V14.01,2013-02-08 02:47:00,
2013-02-07 21:52:00,34.6,27.2,30.24,SSE,156,0.0,6.0,74,0.00,,,0.00,0.00,VWS V14.01,2013-02-08 02:52:00,
2013-02-07 21:58:00,34.6,27.2,30.24,SE,146,3.0,6.0,74,0.00,,,0.00,0.00,VWS V14.01,2013-02-08 02:58:00,
2013-02-07 22:03:00,34.6,27.5,30.23,SSE,161,0.0,5.0,75,0.00,,,0.00,0.00,VWS V14.01,2013-02-08 03:03:00,
2013-02-07 22:08:00,34.6,27.5,30.23,South,178,3.0,10.0,75,0.00,,,0.00,0.00,VWS V14.01,2013-02-08 03:08:00,
2013-02-07 22:13:00,34.6,27.5,30.23,SSE,149,2.0,5.0,75,0.00,,,0.00,0.00,VWS V14.01,2013-02-08 03:13:00,
2013-02-07 22:18:00,34.6,27.8,30.22,SSE,152,0.0,7.0,76,0.00,,,0.00,0.00,VWS V14.01,2013-02-08 03:18:00,
2013-02-07 22:23:00,34.7,27.9,30.22,SE,137,2.0,7.0,76,0.00,,,0.00,0.00,VWS V14.01,2013-02-08 03:23:00,
2013-02-07 22:28:00,34.7,27.9,30.22,SSE,150,5.0,6.0,76,0.00,,,0.00,0.00,VWS V14.01,2013-02-08 03:28:00,
2013-02-07 22:34:00,34.6,28.1,30.22,SE,142,1.0,4.0,77,0.00,,,0.00,0.00,VWS V14.01,2013-02-08 03:34:00,
2013-02-07 22:39:00,34.6,28.1,30.22,SE,145,0.0,7.0,77,0.00,,,0.00,0.00,VWS V14.01,2013-02-08 03:39:00,
2013-02-07 22:44:00,34.5,28.0,30.22,SSE,160,0.0,6.0,77,0.00,,,0.00,0.00,VWS V14.01,2013-02-08 03:44:00,
2013-02-07 22:49:00,34.5,28.0,30.22,SE,146,0.0,5.0,77,0.00,,,0.00,0.00,VWS V14.01,2013-02-08 03:49:00,
2013-02-07 22:54:00,34.5,28.4,30.21,SE,134,5.0,7.0,78,0.00,,,0.00,0.00,VWS V14.01,2013-02-08 03:54:00,
2013-02-07 22:59:00,34.5,28.4,30.21,SSE,160,4.0,4.0,78,0.00,,,0.00,0.00,VWS V14.01,2013-02-08 03:59:00,
2013-02-07 23:04:00,34.4,28.3,30.20,SE,145,0.0,6.0,78,0.00,,,0.00,0.00,VWS V14.01,2013-02-08 04:04:00,
2013-02-07 23:09:00,34.4,28.3,30.20,SE,141,1.0,5.0,78,0.00,,,0.00,0.00,VWS V14.01,2013-02-08 04:09:00,
2013-02-07 23:14:00,34.4,28.3,30.20,SE,140,2.0,4.0,78,0.00,,,0.00,0.00,VWS V14.01,2013-02-08 04:14:00,
2013-02-07 23:19:00,34.4,28.6,30.20,SSE,151,0.0,2.0,79,0.00,,,0.00,0.00,VWS V14.01,2013-02-08 04:19:00,
2013-02-07 23:25:00,34.4,28.6,30.19,SE,140,2.0,3.0,79,0.00,,,0.00,0.00,VWS V14.01,2013-02-08 04:25:00,
2013-02-07 23:30:00,34.4,28.6,30.20,SSE,148,0.0,3.0,79,0.00,,,0.00,0.00,VWS V14.01,2013-02-08 04:30:00,
2013-02-07 23:35:00,34.4,28.6,30.20,SSE,148,1.0,2.0,79,0.00,,,0.00,0.00,VWS V14.01,2013-02-08 04:35:00,
2013-02-07 23:40:00,34.4,28.6,30.19,SE,128,0.0,3.0,79,0.00,,,0.00,0.00,VWS V14.01,2013-02-08 04:40:00,
2013-02-07 23:45:00,34.4,28.9,30.20,SE,126,0.0,1.0,80,0.00,,,0.00,0.00,VWS V14.01,2013-02-08 04:45:00,
2013-02-07 23:50:00,34.4,28.9,30.19,SE,140,2.0,2.0,80,0.00,,,0.00,0.00,VWS V14.01,2013-02-08 04:50:00,
2013-02-07 23:55:00,34.4,28.9,30.19,SSE,159,1.0,5.0,80,0.00,,,0.00,0.00,VWS V14.01,2013-02-08 04:55:00,